• In Deutschland
  • Länderverzeichnis
  • Für 7 Tage
  • Wassertemperatur
  • Satellitenkarten
  • Wetterkarte
  • Widgets
  • user-avatar
    Anmelden

    Stündliche Wetter Horb am Neckar

    Heute, 21 Januar, Sonntag

    Zeit Temperatur Niederschläge Wind Luftdruck Luftfeuchtigkeit
    00:00 +2°C° 0,6 mm 3 m/S 706 mmHg 96%
    01:00 +1°C° 0,6 mm 3 m/S 707 mmHg 96%
    02:00 +1°C° 0,2 mm 3 m/S 708 mmHg 95%
    03:00 0°C° 0,2 mm 4 m/S 709 mmHg 94%
    04:00 0°C° 0,2 mm 4 m/S 710 mmHg 94%
    05:00 -1°C° 0,2 mm 4 m/S 711 mmHg 93%
    06:00 -1°C° 0,2 mm 4 m/S 712 mmHg 92%
    07:00 -1°C° 0,2 mm 4 m/S 712 mmHg 92%
    08:00 -1°C° 0,1 mm 4 m/S 714 mmHg 91%
    09:00 -1°C° 0,1 mm 4 m/S 715 mmHg 91%
    10:00 -1°C° 0,1 mm 4 m/S 716 mmHg 91%
    11:00 0°C° 0,1 mm 3 m/S 717 mmHg 89%
    12:00 0°C° 0,1 mm 3 m/S 717 mmHg 88%
    13:00 +1°C° 0,1 mm 3 m/S 718 mmHg 86%
    14:00 +2°C° 0 mm 2 m/S 719 mmHg 86%
    15:00 +2°C° 0 mm 2 m/S 719 mmHg 86%
    16:00 +2°C° 0 mm 1 m/S 719 mmHg 86%
    17:00 +2°C° 0 mm 1 m/S 719 mmHg 87%
    18:00 +1°C° 0 mm 1 m/S 719 mmHg 88%
    19:00 +1°C° 0 mm 1 m/S 719 mmHg 89%
    20:00 +1°C° 0,4 mm 1 m/S 719 mmHg 90%
    21:00 +1°C° 0,4 mm 1 m/S 718 mmHg 91%
    22:00 +1°C° 0,4 mm 2 m/S 718 mmHg 92%
    23:00 +1°C° 1,4 mm 2 m/S 717 mmHg 92%

    Morgen, 22 Januar, Montag

    Zeit Temperatur Niederschläge Wind Luftdruck Luftfeuchtigkeit
    00:00 +1°C° 1,4 mm 2 m/S 716 mmHg 93%
    01:00 +1°C° 1,4 mm 3 m/S 715 mmHg 94%
    02:00 +2°C° 1,7 mm 3 m/S 714 mmHg 95%
    03:00 +1°C° 1,7 mm 4 m/S 714 mmHg 96%
    04:00 +3°C° 1,7 mm 4 m/S 713 mmHg 98%
    05:00 +4°C° 1,2 mm 4 m/S 713 mmHg 98%
    06:00 +4°C° 1,2 mm 4 m/S 713 mmHg 98%
    07:00 +5°C° 1,2 mm 4 m/S 713 mmHg 98%
    08:00 +5°C° 0,3 mm 4 m/S 714 mmHg 97%
    09:00 +6°C° 0,3 mm 4 m/S 714 mmHg 97%
    10:00 +6°C° 0,3 mm 5 m/S 715 mmHg 96%
    11:00 +6°C° 0,1 mm 5 m/S 715 mmHg 95%
    12:00 +7°C° 0,1 mm 5 m/S 716 mmHg 93%
    13:00 +7°C° 0,1 mm 5 m/S 716 mmHg 91%
    14:00 +6°C° 0,1 mm 4 m/S 716 mmHg 91%
    15:00 +6°C° 0,1 mm 4 m/S 716 mmHg 92%
    16:00 +7°C° 0,1 mm 3 m/S 717 mmHg 92%
    17:00 +5°C° 0,1 mm 3 m/S 717 mmHg 93%
    18:00 +6°C° 0,1 mm 2 m/S 718 mmHg 94%
    19:00 +5°C° 0,1 mm 2 m/S 718 mmHg 95%
    20:00 +6°C° 0,1 mm 1 m/S 718 mmHg 96%
    21:00 +6°C° 0,1 mm 1 m/S 719 mmHg 96%
    22:00 +5°C° 0,1 mm 1 m/S 719 mmHg 96%
    23:00 +5°C° 0 mm 1 m/S 720 mmHg 96%

    übermorgen, 23 Januar, Dienstag

    Zeit Temperatur Niederschläge Wind Luftdruck Luftfeuchtigkeit
    00:00 +5°C° 0 mm 1 m/S 720 mmHg 96%
    01:00 +5°C° 0 mm 1 m/S 720 mmHg 96%
    02:00 +4°C° 0 mm 1 m/S 721 mmHg 96%
    03:00 +4°C° 0 mm 1 m/S 721 mmHg 95%
    04:00 +3°C° 0 mm 1 m/S 722 mmHg 95%
    05:00 +3°C° 0 mm 1 m/S 722 mmHg 95%
    06:00 +3°C° 0 mm 1 m/S 723 mmHg 95%
    07:00 +3°C° 0 mm 1 m/S 723 mmHg 95%
    08:00 +3°C° 0 mm 1 m/S 724 mmHg 95%
    09:00 +4°C° 0 mm 1 m/S 724 mmHg 94%
    10:00 +5°C° 0 mm 1 m/S 724 mmHg 93%
    11:00 +6°C° 0 mm 1 m/S 724 mmHg 90%
    12:00 +7°C° 0 mm 1 m/S 725 mmHg 87%
    13:00 +8°C° 0 mm 1 m/S 725 mmHg 84%
    14:00 +8°C° 0 mm 1 m/S 724 mmHg 86%
    15:00 +7°C° 0 mm 1 m/S 724 mmHg 87%
    16:00 +7°C° 0 mm 1 m/S 724 mmHg 89%
    17:00 +6°C° 0 mm 1 m/S 724 mmHg 89%
    18:00 +5°C° 0 mm 1 m/S 725 mmHg 89%
    19:00 +4°C° 0 mm 2 m/S 725 mmHg 89%
    20:00 +3°C° 0 mm 2 m/S 725 mmHg 88%
    21:00 +3°C° 0 mm 2 m/S 725 mmHg 87%
    22:00 +3°C° 0 mm 2 m/S 725 mmHg 86%
    23:00 +3°C° 0 mm 2 m/S 725 mmHg 87%

    24 Januar, Mittwoch

    Zeit Temperatur Niederschläge Wind Luftdruck Luftfeuchtigkeit
    00:00 +3°C° 0 mm 2 m/S 725 mmHg 88%
    01:00 +3°C° 0 mm 2 m/S 725 mmHg 89%
    02:00 +3°C° 0 mm 2 m/S 725 mmHg 89%
    03:00 +3°C° 0 mm 2 m/S 725 mmHg 89%
    04:00 +4°C° 0 mm 2 m/S 724 mmHg 90%
    05:00 +4°C° 0 mm 2 m/S 724 mmHg 90%
    06:00 +4°C° 0 mm 2 m/S 724 mmHg 90%
    07:00 +4°C° 0 mm 2 m/S 724 mmHg 90%
    08:00 +5°C° 0 mm 2 m/S 724 mmHg 89%
    09:00 +5°C° 0 mm 2 m/S 725 mmHg 89%
    10:00 +6°C° 0 mm 2 m/S 725 mmHg 88%
    11:00 +7°C° 0 mm 2 m/S 724 mmHg 86%
    12:00 +9°C° 0 mm 2 m/S 724 mmHg 85%
    13:00 +10°C° 0 mm 2 m/S 724 mmHg 83%
    14:00 +10°C° 0 mm 2 m/S 723 mmHg 85%
    15:00 +9°C° 0 mm 2 m/S 723 mmHg 86%
    16:00 +9°C° 0 mm 2 m/S 723 mmHg 88%
    17:00 +8°C° 0 mm 2 m/S 723 mmHg 89%
    18:00 +7°C° 0 mm 2 m/S 723 mmHg 89%
    19:00 +6°C° 0 mm 2 m/S 722 mmHg 89%
    20:00 +6°C° 0 mm 2 m/S 722 mmHg 88%
    21:00 +5°C° 0 mm 2 m/S 722 mmHg 87%
    22:00 +5°C° 0 mm 2 m/S 722 mmHg 86%
    23:00 +5°C° 0 mm 2 m/S 722 mmHg 86%

    25 Januar, Donnerstag

    Zeit Temperatur Niederschläge Wind Luftdruck Luftfeuchtigkeit
    00:00 +5°C° 0 mm 2 m/S 722 mmHg 85%
    01:00 +4°C° 0 mm 2 m/S 721 mmHg 85%
    02:00 +4°C° 0 mm 2 m/S 721 mmHg 84%
    03:00 +4°C° 0 mm 2 m/S 721 mmHg 83%
    04:00 +4°C° 0 mm 2 m/S 720 mmHg 82%
    05:00 +4°C° 0 mm 2 m/S 720 mmHg 82%
    06:00 +4°C° 0 mm 2 m/S 720 mmHg 81%
    07:00 +4°C° 0 mm 2 m/S 720 mmHg 80%
    08:00 +5°C° 0 mm 2 m/S 720 mmHg 78%
    09:00 +6°C° 0 mm 2 m/S 720 mmHg 77%
    10:00 +6°C° 0 mm 2 m/S 720 mmHg 76%
    11:00 +7°C° 0 mm 3 m/S 719 mmHg 74%
    12:00 +8°C° 0 mm 3 m/S 719 mmHg 72%
    13:00 +10°C° 0 mm 3 m/S 719 mmHg 71%
    14:00 +9°C° 0 mm 3 m/S 718 mmHg 74%
    15:00 +9°C° 0 mm 3 m/S 718 mmHg 77%
    16:00 +8°C° 0 mm 2 m/S 718 mmHg 79%
    17:00 +8°C° 0 mm 2 m/S 718 mmHg 81%
    18:00 +7°C° 0 mm 2 m/S 718 mmHg 83%
    19:00 +6°C° 0 mm 2 m/S 718 mmHg 84%
    20:00 +6°C° 0 mm 2 m/S 719 mmHg 86%
    21:00 +6°C° 0 mm 2 m/S 719 mmHg 87%
    22:00 +6°C° 0 mm 2 m/S 719 mmHg 88%
    23:00 +5°C° 0,1 mm 2 m/S 719 mmHg 89%

    26 Januar, Freitag

    Zeit Temperatur Niederschläge Wind Luftdruck Luftfeuchtigkeit
    00:00 +6°C° 0,1 mm 1 m/S 719 mmHg 91%
    01:00 +6°C° 0,1 mm 1 m/S 720 mmHg 93%
    02:00 +6°C° 0,3 mm 1 m/S 720 mmHg 93%
    03:00 +5°C° 0,3 mm 1 m/S 720 mmHg 93%
    04:00 +4°C° 0,3 mm 2 m/S 720 mmHg 93%
    05:00 +5°C° 0,3 mm 1 m/S 721 mmHg 92%
    06:00 +5°C° 0,3 mm 1 m/S 721 mmHg 92%
    07:00 +5°C° 0,3 mm 1 m/S 721 mmHg 91%
    08:00 +5°C° 0,2 mm 1 m/S 722 mmHg 90%
    09:00 +5°C° 0,2 mm 1 m/S 722 mmHg 88%
    10:00 +5°C° 0,2 mm 1 m/S 723 mmHg 87%
    11:00 +6°C° 0 mm 1 m/S 723 mmHg 84%
    12:00 +6°C° 0 mm 1 m/S 723 mmHg 81%
    13:00 +7°C° 0 mm 1 m/S 723 mmHg 78%
    14:00 +7°C° 0,1 mm 1 m/S 723 mmHg 80%
    15:00 +6°C° 0,1 mm 0 m/S 724 mmHg 82%
    16:00 +6°C° 0,1 mm 0 m/S 724 mmHg 83%
    17:00 +5°C° 0,1 mm 0 m/S 724 mmHg 85%
    18:00 +5°C° 0,1 mm 0 m/S 725 mmHg 87%
    19:00 +4°C° 0,1 mm 0 m/S 725 mmHg 89%
    20:00 +4°C° 0,1 mm 0 m/S 726 mmHg 89%
    21:00 +4°C° 0,1 mm 0 m/S 726 mmHg 90%
    22:00 +4°C° 0,1 mm 0 m/S 727 mmHg 91%
    23:00 +3°C° 0,1 mm 0 m/S 727 mmHg 91%
    Mehr zeigen